www.pogodaiklimat.ru

Погода и климат >> Архив погоды >> Россия >> Приморский край >> Посьет


АРХИВ ПОГОДЫ в Посьете

Время (UTC), дата Ветер
(напр.,м/с)
 
Видим.   Явления Облачность Т
(С)
Тd
(С)
f
(%)
Тe
(С)
Тes
(С)
Комфортность P
(гПа)
Po
(гПа)
Тmin
(С)
Tmax
(С)
R
(мм)
R24
(мм)
S
(см)
15 13.08 СВ 4 4000 м морось {дождь} 10/10 300 м
[St]
+17.8 +17.8 100 +18 +18 1009.1 1004.5
18 13.08 СВ 5 4000 м морось {дождь} 10/10 300 м
[St]
+17.7 +17.7 100 +17 +17 1008.3 1003.7
21 13.08 В 7
{10}
4000 м морось 10/10 300 м
[St]
+18.2 +18.2 100 +18 +18 1007.4 1002.8 +17.5 5
00 14.08 СВ 4
{11}
10 км слаб. дождь {морось} 10/10 300 м
[Frnb Ns]
+18.0 +18.0 100 +18 +18 1007.5 1002.9
03 14.08 В 5 10 км слаб. дождь 10/10 300 м
[Frnb Ns]
+18.6 +18.6 100 +19 +19 1007.0 1002.4
06 14.08 В 6 10 км слаб. дождь 10/10 300 м
[Frnb Ns]
+18.6 +18.6 100 +19 +19 1006.3 1001.7
09 14.08 В 5
{10}
10 км слаб. дождь 10/10 300 м
[Frnb Ns]
+18.2 +18.2 100 +18 +18 1005.3 1000.8 +18.7 11
12 14.08 В 4
{10}
20 км {дождь} 10/10 600 м
[Sc]
+18.7 +18.7 100 +20 +20 1006.1 1001.5
15 14.08 В 4 10 км слаб. дождь 10/10 600 м
[Frnb Ns]
+18.3 +18.3 100 +19 +19 1005.8 1001.3
18 14.08 В 4 10 км слаб. дождь 10/10 600 м
[Frnb Ns]
+18.1 +18.1 100 +18 +18 1005.1 1000.6
21 14.08 В 2 10 км слаб. дождь 10/10 600 м
[Frnb Ns]
+18.0 +18.0 100 +19 +19 1004.3 999.8 +18.0 3
00 15.08 В 1 10 км {дождь} 10/10 300 м
[St]
+17.9 +17.9 100 +19 +19 1004.0 999.5 +17.7
03 15.08 В 4 10 км слаб. дождь 10/10 300 м
[Frnb Ns]
+18.8 +18.8 100 +20 +20 1002.3 997.8
06 15.08 штиль 0 4000 м дождь 10/10 300 м
[Frnb Ns]
+18.7 +18.7 100 +20 +20 1000.7 996.1
09 15.08 СЗ 3 4000 м дождь 10/10 300 м
[Frnb Ns]
+18.7 +18.7 100 +20 +20 997.9 993.4 +19.0 47
12 15.08 З 2 4000 м дождь 10/10 300 м
[Frnb Ns]
+18.8 +18.8 100 +21 +21 комфорт 997.6 993.1
15 15.08 штиль 0 2000 м сильн. дождь 10/10 300 м
[Frnb Ns]
+18.8 +18.8 100 +20 +20 995.9 991.3
18 15.08 СЗ 3 4000 м дождь 10/10 300 м
[Frnb Ns]
+18.7 +18.7 100 +20 +20 993.5 989.0
21 15.08 З 5-10
{10}
2000 м сильн. дождь 10/10 300 м
[Frnb Ns]
+18.8 +18.8 100 +20 +20 992.5 988.0 +18.6 125
00 16.08 З 3
{10}
4000 м дождь 10/10 200 м
[Frnb Ns]
+19.2 +19.2 100 +22 +22 комфорт 992.2 987.7
03 16.08 З 2 10 км дождь 10/10 300 м
[Frnb Ns]
+19.8 +19.8 100 +24 +24 комфорт 991.0 986.6
06 16.08 З 2 10 км морось {дождь} 10/10 200 м
[St]
+21.2 +20.8 98 +27 +27 душно 990.7 986.3
09 16.08 штиль 0 20 км {дождь, морось} 10/10 600 м
[Sc]
+21.7 +21.4 98 +28 +28 душно 991.0 986.5 +22.1 46
12 16.08 ЮЗ 2 20 км {дождь} 5/3 600 м
[Sc Ac lent]
+20.1 +20.1 100 +24 +24 комфорт 992.2 987.7
15 16.08 ЮЗ 3 20 км 8/3 600 м
[Sc Ac trans]
+20.5 +20.2 98 +25 +25 комфорт 992.8 988.3
18 16.08 ЮЗ 2 20 км 4/0
[Ac trans]
+20.5 +20.3 99 +26 +26 душно 993.0 988.5
21 16.08 штиль 0 20 км 10/10 600 м
[Sc]
+20.8 +20.7 99 +25 +25 комфорт 993.6 989.1 +20.1
00 17.08 В 2 20 км 10/10 300 м
[St]
+20.8 +20.8 100 +27 +27 душно 994.5 990.1
03 17.08 В 3 20 км 10/10 600 м
[Sc]
+23.4 +21.7 90 +32 +32 очень
душно
995.6 991.2
06 17.08 В 7
{10}
20 км 10/10 600 м
[Sc]
+20.3 +18.6 90 +23 +23 комфорт 996.0 991.5
09 17.08 В 4
{11}
20 км 10/10 300 м
[St]
+18.2 +17.8 98 +18 +18 997.9 993.4 +23.5
12 17.08 СВ 5 4000 м дымка 10/10 300 м
[St]
+17.2 +17.2 100 +17 +17 1000.4 995.8
15 17.08 В 4 10 км 10/10 300 м
[St]
+17.5 +17.2 98 +17 +17 1001.6 997.1
18 17.08 СВ 3 10 км 10/10 300 м
[St]
+17.1 +17.1 100 +17 +17 1002.6 998.0
21 17.08 СВ 4 10 км в посл. час дождь 10/10 300 м
[St]
+16.9 +16.9 100 +16 +16 1003.8 999.2 +17.0 0.7
00 18.08 В 3 20 км {дождь} 10/10 300 м
[St]
+18.3 +17.5 95 +19 +19 1005.3 1000.7 +16.9
03 18.08 В 3 20 км 9/9 600 м
[Sc]
+19.9 +18.4 91 +23 +25 комфорт 1005.9 1001.4
06 18.08 ЮВ 3 20 км 10/10 600 м
[Sc]
+19.8 +18.3 91 +23 +23 комфорт 1006.4 1001.8
09 18.08 ЮВ 3 20 км 10/10 300 м
[St]
+18.5 +17.9 96 +20 +20 1007.2 1002.7 +20.7
12 18.08 В 2 20 км 10/10 300 м
[St]
+18.0 +17.8 99 +19 +19 1009.0 1004.4
15 18.08 ЮВ 1 20 км 10/10 300 м
[St]
+17.9 +17.9 100 +19 +19 1010.0 1005.4
18 18.08 СВ 2 4000 м дымка 10/10 300 м
[St]
+17.3 +17.3 100 +18 +18 1011.0 1006.4
21 18.08 СВ 2 20 км 10/10 600 м
[Sc]
+17.4 +17.4 100 +18 +18 1011.6 1007.0 +17.2
00 19.08 В 1 20 км 10/10 600 м
[Sc]
+18.5 +18.5 100 +21 +21 комфорт 1012.9 1008.3
03 19.08 В 2 20 км 10/10 600 м
[Sc]
+19.5 +18.6 95 +23 +23 комфорт 1013.1 1008.5
06 19.08 Ю 3 20 км 10/10 600 м
[Sc]
+19.0 +18.3 96 +21 +21 комфорт 1012.6 1008.0
09 19.08 Ю 1 20 км 10/10 600 м
[Sc]
+18.9 +18.1 95 +21 +21 комфорт 1013.0 1008.4 +20.0
12 19.08 В 2 20 км 10/10 300 м
[St]
+17.9 +17.6 98 +18 +18 1013.7 1009.1
15 19.08 В 1 10 км слаб. морось 10/10 300 м
[St]
+17.6 +17.6 100 +19 +19 1014.5 1009.9
18 19.08 В 1 10 км {морось} 10/10 300 м
[St]
+17.6 +17.5 99 +19 +19 1014.0 1009.4
21 19.08 штиль 0 20 км 10/10 300 м
[St]
+17.8 +17.8 100 +18 +18 1013.9 1009.3 +17.5 0.0
00 20.08 штиль 0 20 км 10/10 600 м
[St]
+19.5 +18.5 94 +22 +22 комфорт 1013.8 1009.2
03 20.08 Ю 2 20 км 9/4 600 м
[Sc Ac und]
+21.6 +19.0 85 +26 +30 душно 1013.5 1009.0
06 20.08 ЮВ 2 20 км 6/0
[Cs]
+22.8 +19.2 80 +29 +38 очень
душно
1011.6 1007.1
09 20.08 Ю 2 20 км 9/0
[Ac trans]
+20.8 +18.7 88 +26 +26 душно 1011.5 1006.9 +23.6

 

Местоположение метеостанции Посьет (Приморский край, Россия): широта 42.65 долгота 130.80 высота над уровнем моря 39 м.

В архиве по умолчанию представлена погода в Посьете за последнюю неделю. Архивные данные за месяц целиком и за предыдущие месяцы, начиная с января 2011 года, Вы можете получить, выбрав интересующий диапазон дат из раскрывающегося списка и нажав кнопку "Ввод!".


*Определитесь, кто Вы:
робот инопланетянин человек

Внимание! Время в таблицах - всемирное. Для получения местного времени необходимо прибавить поправку, которая равна 10 ч.

Смотрите также архив погоды в соседних городах и на ближайших метеорологических станциях:

Погода в Гамове (Приморский край, Россия) (36 км)
Погода в Сонбонге (КНДР) (49 км)
Погода в Барабаше (Приморский край, Россия) (78 км)
Погода на Мысе Назимова (Приморский край, Россия) (100 км)
Погода в Владивостоке (Приморский край, Россия) (104 км)
Погода в Яньцзи (Гирин, Китай) (109 км)
Погода в Чхонджине (КНДР) (127 км)
Погода в Полтавке (Приморский край, Россия) (159 км)
Погода в Тимирязевском (Приморский край, Россия) (163 км)
Погода в Многоудобном (Приморский край, Россия) (164 км)

Пояснения к столбцам:

Ветер - указаны скорость ветра в м/с - средняя за 10 мин, порывы в срок и между сроками (в фигурных скобках) и направление, откуда дует ветер: С - северный, СВ - северо-восточный, В - восточный, ЮВ - юго-восточный, Ю - южный, ЮЗ - юго-западный, З - западный, СЗ - северо-западный.
Видимость - горизонтальная дальность видимости в метрах или километрах. При видимости от 1 до 10 км при отсутствии осадков обычно наблюдается дымка, при ухудшении видимости до 1 км и менее - туман. В сухую погоду видимость может ухудшаться дымом, пылью или мглою.
Явления - указаны атмосферные явления, наблюдавшиеся в срок или в последний час перед сроком; фигурными скобками обозначены явления, наблюдавшиеся между сроками (за 1-3 часа до срока); квадратными скобками обозначены град или гололедные отложения с указанием их диаметра в мм.
Облачность - указаны через наклонную черту общая и нижняя облачность в баллах и высота нижней границы облаков в метрах; квадратными скобками обозначены формы облаков: Ci - перистые, Cs - перисто-слоистые, Cc - перисто-кучевые, Ac - высококучевые, As - высокослоистые, Sc - слоисто-кучевые, Ns - слоисто-дождевые, Cu - кучевые, Cb - кучево-дождевые. Подробнее классификацию облаков см. в Атласе облаков (PDF).
T - Температура воздуха - температура, измеренная на высоте 2 м над землей.
Td - Температура точки росы - температура, при понижении до которой содержащийся в воздухе водяной пар достигнет насыщения.
f - Относительная влажность воздуха - влажноcть воздуха, измеренная на высоте 2 м над землей.
Te - Эффективная температура - температура, которую ощущает одетый по сезону человек в тени. Характеристика душности погоды. При расчете учитывается влияние влажности воздуха и скорости ветра на теплоощущения человека.
Tes - Эффективная температура на солнце - температура, которую ощущает человек, с поправкой на солнечный нагрев. Характеристика знойности погоды. Зависит от высоты солнца над горизонтом, облачности и скорости ветра. Ночью, в пасмурную погоду, а также при ветре 12 м/с и более поправка равна нулю.
P - Атмосферное давление - приведенное к уровню моря атмосферное давление.
Po - Атмосферное давление - измеренное на уровне метеостанции атмосферное давление.
Tmin - Минимальная температура - минимум температуры воздуха на высоте 2 м над землей.
Tmax - Максимальная температура - максимум температуры воздуха на высоте 2 м над землей.
R - Количество осадков - Количество выпавших осадков за период времени, мм. При наведении курсора мыши на число - период времени, за который выпало указанное количество осадков.
R24 - Количество осадков - Количество выпавших осадков за 24 часа, мм.
S - Снежный покров - Высота снежного покрова, см. При наведении курсора мыши на число - состояние снежного покрова и степень покрытия местности в баллах.